Location: Bytom
(50.3475°N, 18.9244°E)
Time: 06:18:24
(UTC+02:00)

ISS - Pass Details

Date: 26 January 2019
Orbit: 411 x 421 km, 51.6° (Epoch: 24 October)

Event Time Altitude Azimuth Distance (km) Brightness Sun altitude
Rises 19:05:37 0° 262° (W) 2,418 1.4 -25.1°
Reaches altitude 10° 19:07:44 10° 264° (W) 1,552 0.1 -25.5°
Enters shadow 19:09:49 34° 269° (W) 753 -2.0 -25.8°
